Flag for USA Past Weather in Bryan – College Station, Texas, USA — Yesterday and Last 2 Weeks

Now
92 °F

Scattered clouds.


Feels Like: 103 °F
Forecast: 78 / 93 °F
Wind: 17 mph from South

Location: Easterwood Field

Current Time: May 27, 2017 at 4:15:12 pm

Latest Report: May 27, 2017 at 2:53 pm


Visibility: 9 mi

Pressure: 29.85 "Hg

Humidity: 58%

Dew Point: 75 °F

Location of Bryan – College StationLocation

Past Weather in Bryan – College Station — Graph

°F

Bryan – College Station Temperature Yesterday

Maximum temperature yesterday: 90 °F (at 2:53 pm)
Minimum temperature yesterday: 72 °F (at 12:53 am)
Average temperature yesterday: 80 °F

High & Low Weather Summary for the Past Weeks

 TemperatureHumidityPressure
High92 °F (May 27, 2:53 pm)100% (May 22, 6:18 am)30.09 "Hg (May 22, 6:18 am)
Low55 °F (May 24, 6:53 am)28% (May 24, 4:53 pm)29.69 "Hg (May 25, 6:53 pm)
Average75 °F75%29.86 "Hg
* Reported May 12 2:53 pm — May 27 2:53 pm, Bryan – College Station. Weather by CustomWeather, © 2017

Note: Actual official high and low records may vary slightly from our data, if they occured in-between our weather recording intervals... More about our weather records

Advertising

Bryan – College Station Weather History for the Previous 24 Hours

Scroll right to see more
 ConditionsComfort  
Time TempWeatherWind HumidityBarometerVisibility
2:53 pm
Sat, May 27
92 °FScattered clouds.17 mph58%29.85 "Hg9 mi
1:53 pm90 °FBroken clouds.15 mph59%29.87 "Hg8 mi
12:53 pm89 °FBroken clouds.21 mph61%29.89 "Hg8 mi
11:53 am87 °FBroken clouds.16 mph67%29.90 "Hg6 mi
11:22 am86 °FBroken clouds.17 mph70%29.92 "Hg5 mi
10:53 am85 °FMostly cloudy.15 mph72%29.90 "Hg5 mi
10:32 am83 °FMostly cloudy.13 mph77%29.92 "Hg5 mi
9:53 am82 °FMostly cloudy.14 mph79%29.90 "Hg5 mi
8:53 am80 °FFog.10 mph87%29.90 "Hg5 mi
8:21 am79 °FFog.9 mph90%29.92 "Hg5 mi
7:53 am79 °FFog.9 mph90%29.89 "Hg5 mi
6:53 am78 °FFog.9 mph90%29.88 "Hg5 mi
5:53 am78 °FMostly cloudy.9 mph90%29.86 "Hg7 mi
5:30 am78 °FMostly cloudy.7 mph90%29.87 "Hg7 mi
4:53 am78 °FMostly cloudy.13 mph90%29.84 "Hg7 mi
3:53 am79 °FMostly cloudy.14 mph88%29.85 "Hg8 mi
2:53 am79 °FOvercast.14 mph88%29.85 "Hg8 mi
1:53 am79 °FOvercast.14 mph88%29.85 "Hg8 mi
12:53 am79 °FOvercast.14 mph88%29.86 "Hg9 mi
11:53 pm
Fri, May 26
79 °FMostly cloudy.13 mph88%29.86 "Hg9 mi
10:53 pm79 °FPassing clouds.12 mph88%29.87 "Hg9 mi
9:53 pm81 °FClear.14 mph82%29.85 "Hg10 mi
8:53 pm82 °FClear.12 mph77%29.83 "Hg10 mi
7:53 pm84 °FSunny.14 mph72%29.81 "Hg10 mi
6:53 pm87 °FScattered clouds.13 mph65%29.80 "Hg10 mi
5:53 pm89 °FScattered clouds.16 mph61%29.81 "Hg10 mi
4:53 pm89 °FScattered clouds.17 mph63%29.81 "Hg10 mi
Weather by CustomWeather, © 2017

See weather overviewHow to use our weather pages